Theta_e
315 315 316 315 315 315 315 314 314 314 313 313 313 313 312 312 311 312 312 313 312 312 313 313 315 316 316 316 316 317 317 317 317 318 318 317 317 317 317 317 318 318 318 317 316 316 316 315 316 316 316 310
312 313 313 313 312 312 311 311 311 311 311 310 309 309 309 308 308 309 310 310 311 309 309 310 311 313 314 314 315 315 315 316 315 316 316 315 316 316 316 316 316 316 316 315 314 314 314 314 315 315 314 309
307 310 310 310 310 310 309 309 309 307 307 306 306 306 306 307 307 306 306 306 306 307 306 305 305 309 311 312 313 314 313 314 313 314 314 314 314 315 314 313 314 314 312 313 313 312 312 314 315 313 313 313
302 307 307 308 308 307 307 307 306 306 305 304 304 304 304 307 308 305 302 303 303 303 304 303 303 306 309 309 310 311 311 311 311 313 312 312 313 313 311 311 311 311 310 312 311 311 312 314 311 308 306 307
300 303 305 304 304 305 305 304 305 305 305 308 306 304 306 305 301 299 298 298 299 305 302 304 303 304 306 307 307 308 309 309 309 311 310 310 311 310 309 308 309 310 309 309 310 310 313 311 305 304 304 305
303 303 305 301 301 301 302 303 306 302 301 306 301 306 301 298 299 298 297 297 302 299 302 302 304 304 304 306 306 306 307 307 307 309 308 309 309 308 307 307 302 302 307 309 310 312 310 303 302 303 303 304
302 300 299 299 298 301 304 303 301 300 300 300 300 300 297 299 298 298 298 297 301 301 306 302 304 305 303 304 304 304 304 304 305 306 306 307 307 306 305 301 299 300 299 300 305 305 302 300 301 302 303 303
299 298 299 298 300 300 299 300 301 299 299 299 299 300 297 297 298 297 296 304 304 303 298 298 302 304 303 303 304 302 302 303 304 304 304 304 304 305 301 299 299 299 299 299 300 299 299 299 300 301 301 301
298 299 298 298 298 299 298 299 299 298 298 298 298 298 297 298 298 298 296 296 296 295 296 295 295 295 295 295 295 302 294 294 296 297 296 296 298 296 297 296 297 298 298 299 299 298 299 300 300 300 300 300
299 300 297 297 297 297 298 300 297 298 297 297 297 296 297 296 296 296 296 295 295 295 295 294 293 294 294 293 294 295 293 293 293 293 293 294 294 294 295 295 296 296 298 297 297 297 298 299 299 299 299 299
297 297 297 297 297 297 297 297 296 295 295 295 296 296 296 296 294 294 294 294 294 293 294 294 293 292 293 293 292 293 292 293 292 292 293 293 293 293 294 294 295 295 295 295 296 297 297 298 298 298 298 298
296 297 297 298 297 296 298 297 295 295 294 297 294 295 294 296 294 293 292 293 292 293 293 293 293 293 292 292 292 293 293 292 291 291 292 292 292 292 292 292 293 293 293 294 294 294 295 296 297 297 297 298
296 296 296 294 295 294 297 296 295 294 296 294 294 295 294 295 294 293 293 292 292 292 292 292 292 292 291 292 291 292 290 291 290 290 291 291 291 291 291 291 291 292 292 293 293 293 293 294 294 294 295 295
296 295 295 295 295 293 297 294 295 295 294 293 293 293 294 294 293 292 291 292 291 291 292 292 291 291 291 291 291 290 290 290 290 290 290 290 291 291 290 290 291 292 291 292 292 292 293 293 293 293 293 293
295 296 295 296 294 294 295 294 295 295 294 293 292 293 293 293 293 293 292 292 291 290 291 291 290 291 291 290 290 290 290 290 290 290 290 291 290 290 290 290 290 291 291 291 291 292 292 292 292 291 292 292
295 295 295 295 294 294 294 295 293 293 293 294 292 293 293 292 292 292 292 292 291 291 290 290 290 290 290 289 289 289 289 289 290 290 291 291 291 291 290 290 290 291 290 289 290 291 291 291 291 291 291 292
295 295 296 295 294 294 296 294 294 293 293 292 293 293 293 292 292 291 291 291 291 291 289 290 290 289 290 289 289 289 289 290 290 289 289 290 290 289 289 289 289 291 290 289 289 289 290 290 290 291 291 291
294 295 294 294 294 295 294 292 292 293 293 293 292 292 292 292 291 291 290 290 290 290 288 289 289 288 289 288 288 288 289 288 288 288 288 288 288 290 289 287 288 288 288 288 288 288 289 289 289 289 289 290
294 294 294 293 293 293 293 293 292 291 292 291 291 292 291 292 291 290 291 290 289 289 288 288 288 288 288 289 288 287 288 288 288 288 287 287 287 287 287 287 288 288 287 287 287 288 288 288 288 288 289 289
295 294 293 293 295 292 293 291 292 291 291 291 290 291 291 291 290 291 290 290 289 288 288 287 287 287 288 288 287 288 287 288 287 287 288 287 287 285 285 287 286 287 286 286 286 287 287 287 288 288 288 289
293 293 293 293 293 293 293 291 291 290 291 291 291 290 290 291 291 290 290 290 289 287 287 287 286 287 288 288 287 287 287 286 288 286 289 286 288 286 285 285 285 285 285 285 286 286 286 287 288 287 288 288
293 293 293 292 292 293 291 292 291 291 291 291 290 290 290 291 290 291 290 289 289 287 287 287 287 287 288 287 287 286 286 286 286 286 286 285 286 286 285 284 284 284 285 286 286 286 286 286 286 287 287 288
293 293 292 291 291 291 290 291 291 290 290 290 290 289 291 290 290 290 290 289 289 287 287 286 286 286 287 287 286 285 285 285 286 287 285 284 284 285 285 284 284 284 285 286 286 285 285 286 286 287 287 288
292 291 291 290 290 289 290 290 290 291 290 291 289 291 290 290 289 289 289 288 288 287 286 286 286 286 287 286 285 285 284 284 284 284 284 283 284 284 284 286 285 285 284 284 284 285 286 285 285 285 286 286
291 290 290 289 290 289 290 290 290 290 290 290 289 290 290 290 289 289 289 288 287 287 287 286 285 285 286 285 285 284 284 285 284 285 284 284 284 284 283 283 284 284 284 283 282 283 282 283 284 286 287 286
291 291 290 290 290 290 290 290 290 289 289 289 291 290 289 289 289 289 288 288 287 287 286 285 285 285 285 285 284 284 285 285 287 284 283 284 283 284 283 282 284 284 284 281 280 279 280 281 283 284 285 285
291 291 291 291 290 290 289 290 290 289 289 290 289 289 289 289 289 288 288 287 287 287 286 285 284 284 284 285 285 284 283 283 283 283 283 283 282 282 282 283 284 284 284 279 280 281 279 277 277 282 283 285
292 292 291 291 291 291 290 289 290 290 289 289 289 288 289 288 288 288 287 287 287 287 286 285 284 284 284 284 284 284 283 283 282 283 283 283 283 283 280 281 281 284 283 282 280 276 277 277 277 275 279 279
292 292 291 291 291 290 289 289 287 287 286 287 288 288 287 288 288 288 287 287 287 286 285 285 285 283 283 283 284 283 282 282 282 282 283 283 282 281 280 280 280 281 283 282 283 280 276 275 275 275 277 278
292 291 291 289 288 286 286 286 285 285 286 286 286 286 287 288 288 287 287 286 286 286 285 284 284 283 283 283 283 284 283 282 282 282 282 282 282 281 281 281 280 279 282 283 283 283 280 279 274 275 277 276
292 291 290 289 289 288 287 286 286 287 287 287 287 287 287 287 287 287 287 286 285 285 285 284 284 283 283 283 282 283 282 281 281 282 282 283 282 282 283 281 279 279 279 280 281 283 283 282 282 281 278 275
Wind_Speed
11 12 12 13 13 12 12 12 12 12 12 11 11 12 12 13 13 13 14 14 15 15 15 14 15 14 14 14 14 13 13 14 14 14 14 14 14 14 14 14 14 13 12 12 13 14 14 15 15 13 11 6
11 11 12 12 12 12 12 12 12 12 11 11 11 10 11 12 13 13 13 13 14 15 15 15 14 14 15 14 14 13 13 13 13 13 13 14 14 14 15 15 14 12 12 12 13 13 14 15 15 14 13 4
6 11 11 11 11 11 12 11 11 11 11 9 9 8 7 8 11 11 10 10 11 11 13 13 12 13 13 13 14 13 13 13 14 13 13 14 13 13 13 14 14 13 13 14 13 14 14 14 13 14 8 5
4 7 10 10 11 11 10 9 9 8 8 7 3 2 2 2 6 7 6 8 4 7 7 9 7 10 11 12 13 12 12 12 14 13 13 14 14 13 14 13 13 13 15 14 15 15 15 13 12 6 7 7
4 6 10 8 10 9 9 8 7 7 5 4 2 1 4 3 3 5 3 3 1 3 1 4 5 8 10 12 14 14 12 13 14 13 13 14 14 13 15 13 13 11 14 14 14 15 14 12 7 7 6 6
4 5 7 6 4 4 4 4 6 3 3 4 1 2 4 3 2 4 3 2 2 1 1 1 4 5 9 12 13 14 13 14 15 14 14 14 14 13 14 13 6 6 8 11 12 11 12 8 6 6 7 6
5 5 4 5 4 4 5 3 3 3 3 2 1 1 4 3 1 2 3 2 2 0 1 1 3 5 11 13 13 14 13 15 14 14 14 14 14 14 12 6 6 6 6 6 9 9 7 6 6 6 7 6
6 6 6 6 5 6 5 4 4 3 3 2 1 2 3 2 1 3 4 4 7 6 5 6 8 10 10 11 10 15 7 12 12 15 13 13 13 8 5 5 6 6 6 6 6 6 6 6 6 6 6 6
6 6 5 5 5 5 5 4 5 4 3 2 2 3 2 1 1 4 4 4 4 5 6 6 6 6 6 6 5 8 5 7 6 7 6 6 6 7 6 6 6 5 6 5 5 5 5 5 5 5 6 6
6 6 5 5 4 4 4 3 3 4 4 4 2 3 2 1 2 5 4 4 4 5 6 6 6 6 5 5 4 6 6 6 6 6 6 6 6 7 7 6 6 6 5 6 6 5 4 5 4 5 6 6
6 5 6 5 5 4 5 4 4 4 5 3 2 2 2 3 3 4 4 4 4 5 5 5 5 5 4 4 5 6 6 6 6 6 6 6 6 7 7 7 7 6 6 6 5 5 5 4 5 5 6 5
6 5 6 5 4 4 6 5 4 4 5 4 4 3 3 2 3 3 4 4 4 4 4 4 4 3 4 5 4 5 6 6 6 6 6 6 6 6 6 7 7 6 6 6 5 5 5 5 5 5 6 6
6 6 6 6 5 4 4 4 5 6 4 5 5 3 3 3 3 3 4 4 4 4 3 3 3 3 4 4 4 5 5 5 6 6 6 6 6 6 6 6 7 6 6 6 6 6 6 6 6 5 6 5
7 7 7 6 5 6 4 4 6 5 4 6 6 4 3 2 3 4 4 4 3 4 2 3 3 3 3 3 3 5 5 5 6 6 6 5 5 5 6 6 7 6 6 6 6 6 6 6 7 6 6 7
8 8 7 6 6 6 5 6 5 5 5 4 6 5 3 4 2 4 4 4 3 3 2 3 3 2 3 3 3 5 5 4 4 4 5 5 4 5 6 6 6 7 6 6 6 6 6 6 6 7 7 7
8 8 7 6 7 7 6 6 6 5 6 6 6 4 3 4 3 3 5 3 3 1 2 3 2 2 3 3 5 4 3 5 4 4 4 4 4 4 4 5 6 6 6 6 7 6 6 6 7 7 7 7
8 8 8 7 7 6 6 6 6 6 6 6 6 4 4 4 3 3 5 4 2 1 3 3 2 2 2 2 4 3 4 4 3 4 5 4 4 5 5 6 6 5 6 7 7 7 7 7 7 7 6 7
8 7 8 7 7 6 7 6 6 6 6 7 6 6 4 4 3 3 5 3 3 1 3 2 2 3 2 4 4 3 4 4 5 5 5 4 5 5 5 5 5 6 7 6 6 6 6 6 7 7 8 8
8 7 7 7 7 7 6 6 6 7 6 6 7 7 6 5 4 4 4 3 2 3 2 2 3 2 3 4 3 3 3 4 4 5 3 5 5 5 4 5 5 5 6 6 7 6 6 6 7 7 8 9
8 9 7 7 7 7 5 7 7 7 7 6 7 7 6 5 4 4 4 4 2 3 3 2 3 2 4 3 2 2 3 3 5 4 3 3 4 4 4 5 6 6 6 6 7 7 6 7 7 8 8 9
7 8 8 7 8 8 5 7 7 7 7 7 6 7 7 6 6 4 4 4 3 3 3 3 3 1 2 2 1 1 2 3 3 3 3 3 3 3 6 5 6 6 6 6 7 7 8 8 8 8 8 9
9 8 7 6 7 7 6 5 6 7 7 6 7 6 7 7 6 6 5 4 4 3 3 3 1 1 0 1 0 1 2 4 3 3 3 3 2 4 5 6 6 8 7 6 6 7 8 9 8 8 9 9
8 7 6 6 6 7 5 4 6 6 7 7 7 6 7 7 6 6 5 4 4 3 3 3 2 1 1 1 1 1 2 3 3 2 3 4 5 3 4 6 7 7 7 7 7 8 10 9 9 9 9 9
8 7 7 8 6 6 6 5 5 6 7 6 7 6 7 7 5 6 5 5 4 4 3 2 2 2 1 1 2 2 2 2 1 2 3 3 4 6 6 5 7 6 6 6 8 9 8 9 10 11 11 10
10 10 8 5 8 9 7 8 6 6 6 7 6 6 7 6 5 5 5 5 5 4 4 3 2 3 2 2 3 3 2 0 2 2 2 3 3 4 7 5 4 5 5 7 7 5 8 9 8 11 11 10
10 9 11 11 10 8 8 8 9 7 6 6 5 7 6 6 5 5 5 5 5 4 4 4 3 2 2 2 2 1 0 1 1 2 3 2 3 2 4 6 5 8 6 3 7 12 13 10 7 7 9 6
11 8 7 7 7 8 6 4 4 5 5 5 6 7 6 6 6 6 5 6 5 5 4 4 3 2 2 1 1 0 1 1 2 1 2 2 3 5 3 4 5 6 3 4 5 7 7 7 11 4 6 1
9 9 7 6 7 7 7 7 6 5 6 6 7 7 6 6 6 6 6 6 5 5 4 4 4 3 2 1 1 1 0 1 2 2 3 3 3 2 5 3 3 3 4 2 5 6 2 8 5 9 0 8
10 10 8 7 7 6 7 6 6 6 6 6 6 6 7 7 6 7 7 6 6 6 5 4 4 3 2 2 1 1 1 2 3 3 3 2 2 3 4 6 3 3 3 4 2 2 4 5 2 2 11 15
12 12 12 11 11 10 7 8 9 11 12 10 10 9 7 7 7 7 6 6 6 5 4 4 4 3 3 2 2 3 4 3 3 3 3 3 3 4 4 4 6 5 3 4 4 4 6 5 6 10 7 3
11 11 11 14 14 13 14 13 8 6 6 8 7 7 9 8 7 7 7 6 6 5 5 4 4 4 4 3 3 3 3 3 3 3 3 3 3 3 3 3 6 6 5 4 4 5 6 7 7 6 6 6
Wind_Direction
96 97 95 92 90 85 83 79 75 74 70 68 67 68 66 62 58 56 53 50 47 43 39 37 32 32 31 31 28 27 26 24 21 18 15 12 9 6 4 2 1 2 1 1 358 355 350 342 335 327 321 301
99 98 98 97 93 91 86 80 75 70 66 63 63 63 65 64 59 54 51 48 44 41 36 30 26 25 27 26 24 23 22 21 19 17 14 12 9 6 3 1 2 2 1 359 356 352 346 339 333 326 325 303
98 102 100 97 92 90 86 82 80 75 69 66 64 64 71 83 83 66 56 55 49 46 41 33 22 19 24 24 21 18 18 17 15 13 13 10 9 7 5 2 1 2 2 359 357 353 346 335 331 330 334 351
117 108 106 100 97 92 89 88 88 89 90 79 68 103 93 132 113 93 68 57 58 60 52 44 29 20 24 25 22 18 16 16 13 11 9 8 7 7 7 4 2 7 1 359 357 354 344 336 336 344 6 359
134 133 116 109 108 105 104 100 95 96 102 144 92 313 144 118 100 104 101 97 43 77 96 84 37 25 23 26 22 17 15 16 14 11 10 9 7 11 10 10 357 7 358 358 358 351 341 345 359 5 353 344
153 174 150 147 144 134 115 116 116 92 90 61 355 351 79 71 35 112 109 111 80 81 46 32 39 16 23 23 20 14 14 13 10 8 10 9 8 13 11 5 355 357 349 346 349 347 344 357 1 351 345 340
167 164 132 133 124 130 132 122 89 104 86 75 354 359 78 73 348 75 96 89 12 351 350 42 30 9 26 20 21 11 18 13 8 8 7 6 7 8 3 358 352 352 346 342 346 348 351 357 348 344 341 342
169 153 155 155 162 155 152 147 131 106 96 83 30 25 68 73 329 60 59 48 29 39 39 24 22 21 28 11 19 10 16 12 0 360 359 2 2 355 353 349 347 347 340 339 344 342 346 348 339 344 344 338
167 162 154 150 157 144 142 158 146 134 118 106 77 29 87 107 36 80 69 57 40 39 40 33 22 17 21 7 17 9 15 16 356 350 352 355 352 353 349 348 341 339 335 336 338 336 331 336 340 340 333 326
157 149 140 150 145 143 120 131 132 134 127 98 51 80 350 90 63 69 73 68 51 48 47 43 22 15 19 6 13 14 7 14 360 349 349 351 356 347 346 342 337 332 344 334 326 325 327 334 333 328 320 322
141 164 146 146 150 142 144 146 138 116 105 94 78 55 35 50 49 69 66 60 54 57 52 47 32 7 24 5 20 12 8 10 360 350 349 350 354 347 344 340 333 339 340 328 330 330 330 324 323 319 315 311
161 170 138 137 136 144 150 143 126 116 120 133 99 62 36 10 77 81 76 52 54 54 54 51 32 9 27 10 24 17 11 14 2 348 347 344 353 346 343 338 331 342 331 332 338 332 324 325 326 321 314 305
165 148 128 134 155 135 157 141 136 137 157 136 116 100 66 27 58 69 80 59 55 64 56 53 43 30 32 13 27 29 6 21 3 349 339 340 347 341 338 332 325 333 328 332 331 330 326 331 329 326 313 308
155 149 146 165 156 143 168 146 137 157 155 137 129 119 108 59 72 76 81 68 52 77 64 60 46 34 34 23 30 35 15 14 8 338 330 330 332 334 330 325 319 328 324 325 326 322 327 327 325 318 320 317
154 153 156 163 143 153 166 140 149 168 138 125 113 121 127 110 76 91 80 89 66 67 71 76 58 35 40 25 31 40 16 3 343 313 301 302 316 324 316 307 312 314 315 317 317 319 321 315 318 316 310 308
154 159 156 154 145 164 152 152 172 153 142 128 116 126 134 111 87 107 117 111 96 113 91 87 69 49 56 21 43 34 7 330 303 293 285 307 327 315 306 313 312 306 319 317 312 314 315 313 314 305 302 303
155 155 151 154 158 154 149 168 156 149 149 134 134 134 123 116 144 130 120 118 124 128 107 101 89 70 61 53 57 26 335 319 326 334 327 323 335 330 334 321 316 325 325 315 315 317 314 315 307 302 305 301
152 151 149 154 147 143 154 170 155 155 148 138 141 135 132 135 125 118 108 117 127 107 103 115 111 88 46 67 50 7 338 351 344 317 315 331 343 325 322 320 320 326 318 307 303 308 300 304 299 303 300 295
154 146 153 157 145 151 170 163 155 152 144 145 145 140 149 138 132 112 114 117 130 135 134 111 86 62 72 66 43 8 348 341 316 304 320 341 328 319 325 318 313 312 300 299 299 295 303 296 296 293 289 287
153 153 156 155 147 155 175 159 156 161 149 159 151 144 145 138 132 130 133 139 136 132 110 110 86 73 57 63 47 7 331 321 303 307 329 318 314 326 317 317 307 301 300 301 300 298 296 291 287 284 279 277
151 153 154 156 152 159 162 160 158 156 151 154 147 142 142 146 146 144 142 144 139 135 130 88 88 65 89 80 68 308 286 280 282 309 302 300 319 343 313 312 301 304 301 297 292 292 288 286 285 281 276 272
153 151 151 148 146 150 163 161 159 155 151 156 156 150 145 147 150 152 152 146 142 109 98 107 114 157 129 123 150 234 261 261 271 273 277 320 334 338 316 311 310 301 293 288 289 291 290 286 282 276 276 272
147 144 140 133 136 148 167 168 164 154 156 164 158 155 143 144 151 151 147 142 130 136 130 131 133 130 191 153 184 224 245 261 271 305 14 358 323 323 305 293 287 282 286 295 298 297 292 286 279 277 271 273
152 149 156 152 146 156 171 177 169 165 164 169 156 154 139 145 156 150 148 144 141 130 132 141 164 159 144 192 202 216 240 261 329 1 351 340 337 317 301 280 276 283 299 294 294 291 290 288 289 282 277 275
165 163 161 159 174 176 175 174 171 171 170 166 163 146 141 146 153 144 142 144 138 152 155 150 171 182 190 198 203 210 223 165 12 8 342 316 320 305 300 294 289 298 306 304 296 279 288 292 275 272 275 271
173 176 177 171 177 166 173 171 173 175 180 166 155 143 144 145 156 147 147 153 148 157 155 161 166 164 181 179 219 220 112 3 331 310 297 288 305 257 291 298 313 303 328 328 353 334 329 320 309 278 263 266
177 172 170 167 166 165 164 173 155 153 161 152 143 146 146 153 156 154 159 155 155 156 162 168 155 162 175 194 176 27 358 1 323 299 294 275 264 299 284 285 288 290 8 306 333 299 293 317 330 331 294 344
172 166 159 153 150 159 154 164 156 144 149 149 139 153 156 162 161 161 164 159 158 158 158 162 164 160 159 206 166 162 250 297 271 275 280 271 259 260 299 297 288 313 328 331 352 346 18 302 314 316 269 332
164 154 152 142 128 103 101 98 121 123 135 152 155 152 167 176 165 164 162 161 161 160 169 169 161 155 180 174 174 143 181 230 237 243 240 240 273 269 254 282 283 304 313 284 214 191 333 328 312 262 314 326
168 169 162 154 153 154 155 163 165 179 178 175 177 181 167 168 169 165 161 159 160 161 163 162 154 156 163 181 202 185 202 216 237 252 259 251 237 253 250 259 281 284 297 259 238 215 195 205 254 312 311 348
170 170 173 174 175 173 175 174 192 178 168 170 170 162 169 171 165 164 159 162 161 163 165 157 157 162 175 191 188 197 198 226 234 241 245 254 247 241 253 269 275 271 275 311 279 244 233 242 260 272 306 297